Terminal Aerodrome Forecast
Issued by NWS Boston, MA

Home | Current Version | Previous Version | Text Only | Print | Product List | Glossary On
Versions: 1 2 3 4 5 6 7 8 9 10 11 12 13 14 15 16 17 18 19 20 21
000
FTUS41 KBOX 101738
TAFPVD
TAF
KPVD 101738Z 1018/1118 31012G21KT P6SM FEW020
     FM110000 31006KT P6SM FEW250
     FM111100 VRB03KT P6SM FEW150
     FM111700 22004KT P6SM BKN110=

USA.gov is the U.S. government's official web portal to all federal, state and local government web resources and services.